Location: Monroe
(41.9160°N, 83.3980°W)
Time: 14:58:02
(UTC-04:00)

Amateur Radio Satellites - All Passes

Search period start: 25 October 2014 14:28
Search period end: 26 October 2014 14:28
Location: Monroe, 41.9160°N, 83.3980°W

Satellite Date Start Highest point End Downlink Frequencies (MHz)
Time Altitude Azimuth
JAS-1B 25 Oct 14:30:04 14:36:03 87° 255° (WSW) 14:41:45 435.800 - 435.900 CW/SSB
AO-7 25 Oct 14:31:08 14:34:57 14° 44° (NE) 14:38:45 29.400 - 29.500 MHz
AO-27 25 Oct 14:31:34 14:36:37 52° 71° (ENE) 14:41:42 436.795 MHz FM
SO-50 25 Oct 14:34:39 14:38:52 37° 311° (NW) 14:43:12 436.795 FM
PCSat 25 Oct 14:35:42 14:40:41 38° 249° (WSW) 14:45:39 145.825 MHz
AO-Echo 25 Oct 14:47:57 14:52:51 90° 256° (WSW) 14:57:57 ?
KITSAT 1 25 Oct 14:52:33 14:59:38 33° 318° (NW) 15:06:46 435.175 FM
Oscar 16 25 Oct 14:58:34 15:03:19 37° 263° (W) 15:08:06 437.025 USB, Beacon 2401.1428
Uribyol 2 25 Oct 15:18:52 15:23:59 56° 259° (W) 15:29:08 436.500 FM
ITAMSAT 1 25 Oct 15:25:09 15:30:13 52° 260° (W) 15:35:19 435.822 SSB
ISS 25 Oct 15:35:21 15:37:51 19° 346° (NNW) 15:40:21 145.800 FM
Saudisat 1A 25 Oct 15:39:01 15:41:58 17° 40° (NE) 15:44:55 436.775 MHz
Gurwin Techsat 1B 25 Oct 15:48:54 15:54:08 61° 259° (W) 15:59:25 435.225 FM
UOSAT-12 25 Oct 15:54:06 15:58:41 60° 306° (NW) 16:03:22 437.025 FM, 437.400 FM
Oscar 19 25 Oct 15:55:23 15:57:13 12° 271° (W) 15:59:04 437.125 CW, 437.150 USB
TMSAT-1 25 Oct 15:59:38 16:04:53 65° 258° (WSW) 16:10:11 436.925 FM
AO-27 25 Oct 16:12:43 16:16:25 20° 268° (W) 16:20:09 436.795 MHz FM
AO-7 25 Oct 16:17:58 16:26:01 59° 65° (ENE) 16:34:05 29.400 - 29.500 MHz
Uosat F 25 Oct 16:33:45 16:38:26 41° 69° (ENE) 16:43:10 435.120 FM
KITSAT 1 25 Oct 16:54:36 16:58:07 13° 346° (NNW) 17:01:38 435.175 FM
JAS-2 25 Oct 17:08:36 17:13:40 28° 61° (ENE) 17:19:15 435.800 - 435.900 CW/SSB, 435.910 FM
ISS 25 Oct 17:13:17 17:15:28 16° 7° (N) 17:17:40 145.800 FM
Saudisat 1A 25 Oct 17:17:36 17:22:01 71° 239° (WSW) 17:26:24 436.775 MHz
Hamsat 25 Oct 17:18:07 17:20:03 13° 63° (ENE) 17:21:59 145.90 MHz
AO-40 25 Oct 17:37:37 23:47:50 41° 184° (S) 05:34:41 Beacon 2401.320
UOSAT-12 25 Oct 17:38:04 17:39:50 12° 327° (NNW) 17:41:37 437.025 FM, 437.400 FM
AO-7 25 Oct 18:12:02 18:19:10 32° 264° (W) 18:26:21 29.400 - 29.500 MHz
Uosat F 25 Oct 18:13:24 18:17:22 23° 266° (W) 18:21:22 435.120 FM
OPAL 25 Oct 18:17:49 18:22:13 31° 99° (E) 18:26:35 ?
ISS 25 Oct 18:49:43 18:52:52 37° 26° (NNE) 18:56:00 145.800 FM
Hamsat 25 Oct 18:51:23 18:55:31 58° 260° (W) 18:59:40 145.90 MHz
JAS-2 25 Oct 18:52:32 18:58:17 51° 262° (W) 19:04:51 435.800 - 435.900 CW/SSB, 435.910 FM
KITSAT 1 25 Oct 18:53:50 18:57:50 14° 18° (NNE) 19:01:50 435.175 FM
SO-67 25 Oct 19:30:12 19:33:28 43° 74° (ENE) 19:36:45 435.3500 MHz FM
OPAL 25 Oct 19:56:43 20:01:03 31° 295° (WNW) 20:05:21 ?
HO-68 25 Oct 20:00:17 20:05:16 21° 55° (NE) 20:10:16 435.675 MHz FM
STRAND 1 25 Oct 20:03:16 20:08:12 44° 99° (E) 20:13:05 ?
ISS 25 Oct 20:26:31 20:29:30 30° 224° (SW) 20:32:29 145.800 FM
KITSAT 1 25 Oct 20:48:36 20:56:01 38° 45° (NE) 21:03:23 435.175 FM
SO-67 25 Oct 21:06:08 21:06:41 10° 270° (W) 21:07:13 435.3500 MHz FM
RS-15 25 Oct 21:06:35 21:13:27 19° 99° (E) 21:20:14 29.354 - 29.394 USB, Beacon 29.352 USB
Oscar 11 25 Oct 21:11:56 21:14:02 14° 63° (ENE) 21:16:09 145.825 FM, Beacon 2401.500 USB
SO-50 25 Oct 21:25:15 21:29:33 31° 47° (NE) 21:33:52 436.795 FM
STRAND 1 25 Oct 21:43:03 21:47:06 24° 296° (WNW) 21:51:08 ?
HO-68 25 Oct 21:44:57 21:52:07 84° 254° (WSW) 21:59:21 435.675 MHz FM
ZACube-1 25 Oct 22:02:28 22:05:53 21° 66° (ENE) 22:09:16 437.345 MHz
UKube-1 25 Oct 22:04:46 22:09:01 55° 73° (ENE) 22:13:17 145.840 MHz, 145.915 MHz
KITSAT 1 25 Oct 22:43:54 22:51:46 58° 246° (WSW) 22:59:35 435.175 FM
UOSAT-12 25 Oct 22:44:03 22:47:35 20° 41° (NE) 22:51:04 437.025 FM, 437.400 FM
Oscar 11 25 Oct 22:45:26 22:49:43 60° 259° (W) 22:54:00 145.825 FM, Beacon 2401.500 USB
FUNcube-1 25 Oct 22:45:41 22:50:10 57° 74° (ENE) 22:54:36 145.950 - 145.970 MHz USB
SO-50 25 Oct 23:05:41 23:10:10 38° 244° (WSW) 23:14:40 436.795 FM
RS-15 25 Oct 23:12:59 23:23:59 83° 120° (ESE) 23:34:57 29.354 - 29.394 USB, Beacon 29.352 USB
HO-68 25 Oct 23:37:16 23:40:49 14° 272° (W) 23:44:23 435.675 MHz FM
ZACube-1 25 Oct 23:37:42 23:42:01 40° 262° (W) 23:46:17 437.345 MHz
UKube-1 25 Oct 23:43:20 23:45:32 14° 269° (W) 23:47:45 145.840 MHz, 145.915 MHz
MaSat-1 26 Oct 00:13:22 00:17:26 61° 114° (ESE) 00:21:07 437.345 MHz
UOSAT-12 26 Oct 00:23:29 00:28:09 63° 240° (WSW) 00:32:44 437.025 FM, 437.400 FM
FUNcube-1 26 Oct 00:24:25 00:26:52 14° 269° (W) 00:29:18 145.950 - 145.970 MHz USB
RS-15 26 Oct 01:27:55 01:37:37 35° 326° (NW) 01:47:26 29.354 - 29.394 USB, Beacon 29.352 USB
Oscar 10/S400 26 Oct 01:36:17 02:36:58 22° 240° (WSW) 05:13:45 145.825 - 145.975 CW/USB, Beacon 145.810 USB
MaSat-1 26 Oct 01:51:27 01:53:16 13° 308° (NW) 01:55:00 437.345 MHz
JAS-1B 26 Oct 02:12:10 02:17:51 26° 96° (E) 02:24:19 435.800 - 435.900 CW/SSB
Oscar 19 26 Oct 02:23:54 02:28:16 28° 95° (E) 02:32:35 437.125 CW, 437.150 USB
AO-27 26 Oct 02:45:19 02:48:52 18° 92° (E) 02:52:23 436.795 MHz FM
AO-Echo 26 Oct 02:55:03 02:59:43 30° 95° (E) 03:04:21 ?
Oscar 16 26 Oct 03:09:22 03:14:30 76° 103° (ESE) 03:19:37 437.025 USB, Beacon 2401.1428
Sapphire 26 Oct 03:14:22 03:17:24 15° 104° (ESE) 03:20:25 437.095 MHz 1200 baud AX-25 AFSK
Uribyol 2 26 Oct 03:31:14 03:36:19 51° 100° (E) 03:41:21 436.500 FM
PCSat 26 Oct 03:35:07 03:39:31 26° 108° (ESE) 03:43:56 145.825 MHz
ITAMSAT 1 26 Oct 03:37:33 03:42:42 55° 101° (E) 03:47:48 435.822 SSB
RS-15 26 Oct 03:46:44 03:54:35 21° 1° (N) 04:02:34 29.354 - 29.394 USB, Beacon 29.352 USB
JAS-1B 26 Oct 04:02:06 04:08:39 60° 289° (WNW) 04:16:28 435.800 - 435.900 CW/SSB
Oscar 19 26 Oct 04:03:00 04:07:38 36° 292° (WNW) 04:12:16 437.125 CW, 437.150 USB
Gurwin Techsat 1B 26 Oct 04:04:44 04:09:57 53° 100° (E) 04:15:07 435.225 FM
TMSAT-1 26 Oct 04:15:10 04:20:19 49° 99° (E) 04:25:26 436.925 FM
AO-7 26 Oct 04:20:56 04:25:55 17° 89° (E) 04:30:53 29.400 - 29.500 MHz
AO-27 26 Oct 04:23:36 04:28:44 56° 288° (WNW) 04:33:49 436.795 MHz FM
AO-Echo 26 Oct 04:33:39 04:38:28 36° 292° (WNW) 04:43:15 ?
Uosat F 26 Oct 04:43:12 04:45:05 12° 89° (E) 04:46:57 435.120 FM
Oscar 16 26 Oct 04:50:30 04:53:13 15° 300° (WNW) 04:55:55 437.025 USB, Beacon 2401.1428
Sapphire 26 Oct 04:54:44 05:00:08 74° 301° (WNW) 05:05:35 437.095 MHz 1200 baud AX-25 AFSK
Uribyol 2 26 Oct 05:11:34 05:15:25 21° 297° (WNW) 05:19:15 436.500 FM
PCSat 26 Oct 05:17:28 05:22:39 46° 306° (NW) 05:27:53 145.825 MHz
ITAMSAT 1 26 Oct 05:18:02 05:21:46 20° 298° (WNW) 05:25:29 435.822 SSB
OPAL 26 Oct 05:32:46 05:37:49 61° 70° (ENE) 05:42:51 ?
Gurwin Techsat 1B 26 Oct 05:45:36 05:49:31 21° 297° (WNW) 05:53:25 435.225 FM
TMSAT-1 26 Oct 05:55:51 05:59:54 23° 296° (WNW) 06:03:56 436.925 FM
JAS-1B 26 Oct 05:56:58 05:58:14 11° 306° (NW) 05:59:32 435.800 - 435.900 CW/SSB
JAS-2 26 Oct 06:00:56 06:07:31 29° 92° (E) 06:14:02 435.800 - 435.900 CW/SSB, 435.910 FM
RS-15 26 Oct 06:01:32 06:11:31 36° 35° (NE) 06:21:47 29.354 - 29.394 USB, Beacon 29.352 USB
AO-7 26 Oct 06:11:25 06:19:48 85° 108° (ESE) 06:28:09 29.400 - 29.500 MHz
Uosat F 26 Oct 06:19:22 06:24:27 79° 286° (WNW) 06:29:28 435.120 FM
Hamsat 26 Oct 06:37:04 06:40:26 23° 94° (E) 06:43:47 145.90 MHz
Sapphire 26 Oct 06:41:33 06:44:32 15° 322° (NW) 06:47:31 437.095 MHz 1200 baud AX-25 AFSK
PCSat 26 Oct 07:07:06 07:07:30 10° 328° (NNW) 07:07:55 145.825 MHz
OPAL 26 Oct 07:13:53 07:17:04 16° 266° (W) 07:20:15 ?
STRAND 1 26 Oct 07:19:25 07:24:30 66° 73° (ENE) 07:29:37 ?
Saudisat 1A 26 Oct 07:24:44 07:28:24 27° 114° (ESE) 07:32:07 436.775 MHz
JAS-2 26 Oct 07:45:13 07:52:53 63° 289° (WNW) 08:00:32 435.800 - 435.900 CW/SSB, 435.910 FM
Uosat F 26 Oct 08:01:25 08:02:22 11° 303° (WNW) 08:03:18 435.120 FM
AO-7 26 Oct 08:05:28 08:11:37 24° 308° (NW) 08:17:47 29.400 - 29.500 MHz
Hamsat 26 Oct 08:12:43 08:16:23 30° 290° (WNW) 08:20:03 145.90 MHz
RS-15 26 Oct 08:13:57 08:25:09 82° 241° (WSW) 08:36:50 29.354 - 29.394 USB, Beacon 29.352 USB
SO-67 26 Oct 08:25:45 08:29:07 49° 99° (E) 08:32:28 435.3500 MHz FM
PANSAT 26 Oct 09:00:44 09:01:42 11° 178° (S) 09:02:41 not established
STRAND 1 26 Oct 09:01:17 09:04:09 15° 270° (W) 09:07:02 ?
Saudisat 1A 26 Oct 09:03:50 09:07:51 34° 311° (NW) 09:11:54 436.775 MHz
HO-68 26 Oct 09:13:55 09:18:35 18° 90° (E) 09:23:12 435.675 MHz FM
JAS-2 26 Oct 09:32:42 09:36:28 15° 308° (NW) 09:40:15 435.800 - 435.900 CW/SSB, 435.910 FM
MaSat-1 26 Oct 09:59:01 10:01:32 51° 247° (WSW) 10:03:53 437.345 MHz
SO-67 26 Oct 10:01:18 10:01:38 10° 295° (WNW) 10:01:58 435.3500 MHz FM
RS-15 26 Oct 10:28:35 10:35:48 20° 261° (W) 10:43:13 29.354 - 29.394 USB, Beacon 29.352 USB
Oscar 11 26 Oct 10:33:13 10:36:40 23° 94° (E) 10:40:06 145.825 FM, Beacon 2401.500 USB
HO-68 26 Oct 10:59:49 11:07:03 83° 288° (WNW) 11:14:14 435.675 MHz FM
KITSAT 1 26 Oct 11:19:45 11:25:16 21° 102° (ESE) 11:30:46 435.175 FM
ZACube-1 26 Oct 11:26:39 11:30:36 36° 97° (E) 11:34:27 437.345 MHz
UKube-1 26 Oct 11:28:30 11:32:54 83° 285° (WNW) 11:37:15 145.840 MHz, 145.915 MHz
Oscar 10/S400 26 Oct 11:58:20 12:14:51 19° 151° (SSE) 12:27:01 145.825 - 145.975 CW/USB, Beacon 145.810 USB
Sapphire 26 Oct 12:00:06 12:03:43 18° 41° (NE) 12:07:20 437.095 MHz 1200 baud AX-25 AFSK
Oscar 11 26 Oct 12:09:04 12:12:52 31° 291° (WNW) 12:16:39 145.825 FM, Beacon 2401.500 USB
FUNcube-1 26 Oct 12:10:50 12:15:04 69° 285° (WNW) 12:19:12 145.950 - 145.970 MHz USB
PCSat 26 Oct 12:21:58 12:26:29 26° 47° (NE) 12:30:58 145.825 MHz
HO-68 26 Oct 12:49:19 12:53:42 18° 307° (NW) 12:58:05 435.675 MHz FM
Oscar 16 26 Oct 12:50:11 12:53:06 15° 60° (ENE) 12:56:00 437.025 USB, Beacon 2401.1428
JAS-1B 26 Oct 13:01:02 13:04:51 19° 60° (ENE) 13:08:38 435.800 - 435.900 CW/SSB
ZACube-1 26 Oct 13:03:42 13:06:44 19° 294° (WNW) 13:09:44 437.345 MHz
ISS 26 Oct 13:08:11 13:11:30 70° 142° (SE) 13:14:49 145.800 FM
KITSAT 1 26 Oct 13:11:34 13:19:39 85° 301° (WNW) 13:27:48 435.175 FM
Uribyol 2 26 Oct 13:14:29 13:15:58 11° 57° (ENE) 13:17:28 436.500 FM
SO-50 26 Oct 13:20:25 13:24:52 67° 120° (ESE) 13:29:27 436.795 FM
ITAMSAT 1 26 Oct 13:20:28 13:22:24 12° 57° (ENE) 13:24:20 435.822 SSB
Oscar 19 26 Oct 13:41:00 13:45:49 42° 70° (ENE) 13:50:38 437.125 CW, 437.150 USB
Sapphire 26 Oct 13:42:25 13:47:53 87° 241° (WSW) 13:53:19 437.095 MHz 1200 baud AX-25 AFSK
Gurwin Techsat 1B 26 Oct 13:50:20 13:52:20 12° 57° (ENE) 13:54:21 435.225 FM
TMSAT-1 26 Oct 14:01:01 14:02:29 11° 57° (ENE) 14:03:57 436.925 FM
AO-27 26 Oct 14:03:32 14:07:59 30° 66° (ENE) 14:12:28 436.795 MHz FM
PCSat 26 Oct 14:04:55 14:10:12 53° 246° (WSW) 14:15:25 145.825 MHz
AO-Echo 26 Oct 14:08:20 14:12:52 38° 69° (ENE) 14:17:33 ?
